| time (UTC) | temp F | wind direction | speed knots | gust knots | rain 1hr in | rain 24hr in | rain mn in | humidity % | barometer mb |
| 20260906133140 | 70 | 98 | 1.7 | 7.0 | 0.00 | 0.00 | 0.00 | 89 | 1018.2 |
| 20260906130140 | 69 | 58 | 4.3 | 6.1 | 0.00 | 0.00 | 0.00 | 89 | 1018.0 |
| 20260906123140 | 69 | 57 | 0.0 | 1.7 | 0.00 | 0.00 | 0.00 | 88 | 1017.7 |
| 20260906120140 | 68 | 53 | 0.0 | 1.7 | 0.00 | 0.00 | 0.00 | 87 | 1017.2 |
| 20260906113140 | 68 | 51 | 0.0 | 2.6 | 0.00 | 0.00 | 0.00 | 87 | 1016.9 |
| 20260906103140 | 69 | 52 | 0.0 | 1.7 | 0.00 | 0.00 | 0.00 | 86 | 1016.2 |
| 20260906100140 | 69 | 59 | 0.0 | 1.7 | 0.00 | 0.00 | 0.00 | 85 | 1016.1 |
| 20260906090141 | 70 | 103 | 0.0 | 1.7 | 0.00 | 0.00 | 0.00 | 84 | 1016.1 |
| 20260906083140 | 71 | 63 | 0.0 | 2.6 | 0.00 | 0.00 | 0.00 | 84 | 1016.0 |
| 20260906080140 | 71 | 71 | 0.0 | 0.9 | 0.00 | 0.00 | 0.00 | 83 | 1016.1 |
| 20260906073110 | 72 | 89 | 0.0 | 1.7 | 0.00 | 0.00 | 0.00 | 83 | 1016.2 |
| 20260906063140 | 72 | 86 | 0.0 | 1.7 | 0.00 | 0.00 | 0.00 | 81 | 1016.2 |
| 20260906060140 | 73 | 92 | 0.0 | 4.3 | 0.00 | 0.00 | 0.00 | 81 | 1016.2 |
| 20260906043140 | 74 | 47 | 0.0 | 5.2 | 0.00 | 0.00 | 0.00 | 79 | 1015.7 |
| 20260906040140 | 74 | 44 | 0.0 | 2.6 | 0.00 | 0.00 | 0.00 | 79 | 1015.3 |
| 20260906033140 | 74 | 95 | 0.9 | 7.8 | 0.00 | 0.00 | 0.00 | 78 | 1015.1 |
| 20260906023140 | 74 | 30 | 0.0 | 9.6 | 0.00 | 0.00 | 0.00 | 77 | 1015.0 |
| 20260906013140 | 75 | 106 | 4.3 | 11.3 | 0.00 | 0.00 | 0.00 | 75 | 1014.9 |
| 20260906003140 | 77 | 37 | 0.9 | 7.8 | 0.00 | 0.00 | 0.00 | 72 | 1014.5 |
| 20260906000140 | 79 | 70 | 0.9 | 7.0 | 0.00 | 0.00 | 0.00 | 70 | 1014.0 |
| 20260905233139 | 81 | 69 | 2.6 | 7.0 | 0.00 | 0.00 | 0.00 | 68 | 1014.0 |
| 20260905230140 | 82 | 342 | 0.9 | 9.6 | 0.00 | 0.00 | 0.00 | 66 | 1013.6 |
| 20260905223139 | 82 | 72 | 1.7 | 7.0 | 0.00 | 0.00 | 0.00 | 64 | 1013.3 |
| 20260905220139 | 82 | 19 | 0.0 | 3.5 | 0.00 | 0.00 | 0.00 | 65 | 1013.2 |
| 20260905213139 | 82 | 302 | 0.0 | 4.3 | 0.00 | 0.00 | 0.00 | 67 | 1013.4 |
| 20260905210140 | 82 | 286 | 0.0 | 5.2 | 0.00 | 0.00 | 0.00 | 68 | 1013.5 |
| 20260905203140 | 82 | 62 | 0.9 | 3.5 | 0.00 | 0.00 | 0.00 | 69 | 1013.8 |
| 20260905193140 | 83 | 5 | 0.0 | 5.2 | 0.00 | 0.00 | 0.00 | 67 | 1013.9 |
| 20260905190140 | 84 | 69 | 0.0 | 4.3 | 0.00 | 0.00 | 0.00 | 66 | 1014.0 |
| 20260905183139 | 84 | 74 | 1.7 | 5.2 | 0.00 | 0.00 | 0.00 | 65 | 1014.1 |
| 20260905180139 | 85 | 65 | 0.9 | 7.0 | 0.00 | 0.00 | 0.00 | 66 | 1014.0 |
| 20260905173140 | 85 | 22 | 0.0 | 6.1 | 0.00 | 0.00 | 0.00 | 67 | 1013.8 |
| 20260905170139 | 85 | 69 | 0.0 | 4.3 | 0.00 | 0.00 | 0.00 | 68 | 1013.9 |
| 20260905163139 | 83 | 94 | 0.0 | 3.5 | 0.00 | 0.00 | 0.00 | 71 | 1014.1 |
| 20260905160139 | 81 | 311 | 2.6 | 6.1 | 0.00 | 0.00 | 0.00 | 76 | 1014.0 |
| 20260905153139 | 79 | 57 | 0.9 | 4.3 | 0.00 | 0.00 | 0.00 | 80 | 1013.9 |
| 20260905150140 | 78 | 86 | 1.7 | 5.2 | 0.00 | 0.00 | 0.00 | 85 | 1013.5 |
| 20260905143139 | 76 | 76 | 1.7 | 3.5 | 0.00 | 0.00 | 0.00 | 88 | 1013.3 |
| 20260905140139 | 76 | 60 | 0.0 | 5.2 | 0.00 | 0.00 | 0.00 | 88 | 1013.2 |